sat.trackr.live / text

‹ back to catalog

STARLINK-11321 [DTC]

NORAD 61877 · 2024-204D

PAYLOAD ACTIVE UNKNOWN

§ Identity

Operator
Country
US
Launch date
2024-11-09
Launch site
AFWTR
Launch vehicle
Mass (kg)
RCS (m²)

Purposes: comms

External: N2YO · Heavens-Above · Gunter

§ Orbital elements

Epoch: 2026-09-21T19:18:44.249184Z

Period
91.74 min
Inclination
53.1593°
Eccentricity
0.0000937
Mean motion
15.69726977 rev/d
Perigee alt
359.0 km
Apogee alt
360.3 km
Semi-major
6,737.8 km
B*
-2.8622e-5
RAAN
109.7135°
Arg perigee
86.7711°
Mean anomaly
273.3415°
Rev number
10,770

§ Raw data

STARLINK-11321 [DTC]1 61877U 24204D   26264.80467881 -.00004057  00000+0 -28622-4 0  99942 61877  53.1593 109.7135 0000937  86.7711 273.3415 15.69726977107701

JSON: /api/v1/satellites/61877 · /tle

For live sub-satellite position, see the globe view (requires WebGL).

§ Visibility from observer

Set your observer location to see the next 7 days of passes ≥ 10°. The values pass through the URL so the page stays shareable.

No JS? Fill the form by hand. The geolocation button needs JavaScript.